Aérodrome :
LOGIN :

S'inscrire | Disclaimer

   EN    FR    IT 

 










Légende :    VFR   VFR Marginal   IFR   IFR Intensif   IFR Très Intensif
Visi : 
Plafond : 
>= 8 km
>= 3000ft
5 à 8 km
1000 à 3000 ft
1500m à 5 km
500 à 1000 ft
800 à 1500m
200 à 500 ft
< 800m
< 200 ft
Symboles :   Orages  Brouillard  Fortes neiges  Fortes précipitations  Vent > 20 kt
SIGMETs :   Divers  Orages  Givrage  Turbulence  Onde Orograph.  Cendres Volcan.







- Altitude de l'aérodrome : 308 ft
- Code IATA : MHG


EDFM - Mannheim-City

DERNIER METAR :
  • 191750Z 26007KT CAVOK 21/08 Q1020

METARs EXPIRÉS :
  • 191720Z 27009KT 230V300 CAVOK 21/08 Q1020
  • 191650Z 26008KT 230V290 CAVOK 21/07 Q1020
  • 191620Z 26007KT 210V300 CAVOK 21/07 Q1020
  • 191550Z 28009KT 220V310 CAVOK 22/08 Q1020
  • 191520Z 29009KT 240V330 CAVOK 21/07 Q1020

Prévision TAF périmée.
Pas de NOTAMs connus pour ce terrain.



MET'MAP, la Météo Aéronautique d'un coup d'oeil ! - Copyright ORBIFLY Décembre 2007 - Disclaimer

ORBIFLY MET'MAP TEAM :

Programmation & Développement : Alexandra Zaïnal
Conception & Développement : Baudouin d'Aumeries
Co-Programmation & Développement : Marc-Olivier Méhu
Soutien technique & logistique : Manuel Goepfert

Contact : metmap@orbifly.com




SOURCES & CREDITS :

   NOAA